Location: Church Tower
(37.7144°N, 119.6316°W)
Time: 19:20:42
(UTC+00:00)

Cosmos 1371 Rocket - Pass Details

Date: 15 November 2025
Orbit: 749 x 785 km, 74.0° (Epoch: 08 December)

Event Time Altitude Azimuth Distance (km) Brightness Sun altitude
Exits shadow 12:21:32 27° 184° (S) 1,462 5.4 -27.2°
Maximum altitude 12:24:28 72° 106° (ESE) 816 4.2 -26.6°
Drops below altitude 10° 12:29:46 10° 22° (NNE) 2,341 6.7 -25.6°
Sets 12:32:11 0° 21° (NNE) 3,277 7.5 -25.1°
